Weather in Dolinovka

Russia / Kamchatka Krai     55°07′16″N   159°04′03″E
temp.,
°C
wind,
m/s
gust,
m/s
humid.,
%
clouds,
%
prec.,
mm/h
press.,
hPa
HPBL,
m
28 february, sun
sun2800:00−12nne3993100 0.7 1013441
03:00−13nne31193100 0.1 1012463
06:00−14nne31093100 0.1 1010488
09:00−14nne31093100 0.1 1009557
12:00−11nne41086100 0.1 1006734
15:00−9nne41084100 0.1 1003787
18:00−10ne31086100 0.1 999739
21:00−13wsw119799 0.2 99834
1 march, mon
mon100:00−13sw2596100 0.9 996169
03:00−13ssw2396100 0.9 994101
06:00−12se0597100 1.9 995369
09:00−13w1197100 0.1 99637
12:00−9s1184100 0.2 996498
15:00−8ssw2386100 0.1 995516
18:00−8se1391100 0.1 996211
21:00−9ese0097100 0.2 99921
2 march, tue
tue200:00−10ssw1196100 0.5 100146
03:00−11ssw2291100 0.1 100458
06:00−13ssw2589100 0.1 1006135
09:00−13ssw2687100 0.0 1011210
12:00−9sw487597 0.0 1013669
15:00−6wsw496373 0.0 10161666
18:00−7wsw497381 0.1 10191090
21:00−14ssw238255 0.0 102478
3 march, wed
wed300:00−16ssw238473 0.0 102749
03:00−16s2285100 0.0 102723
06:00−15n1186100 0.0 102522
09:00−15nne2390100 0.0 1021169
12:00−13nne3694100 0.4 1014338
15:00−11nne4993100 1.3 1004519
18:00−12n3995100 4.4 995480
21:00−12nne4995100 6.3 985390
4 march, thu
thu400:00−11n2796100 12.1 975298
03:00−7ssw9186999 2.9 9771060
06:00−11sw6177371 2.9 9871571
09:00−13wsw518776 0.0 9921819
12:00−12w7186511 0.0 9982355
15:00−10w81963100 0.0 10012437
18:00−10sw51672100 0.0 10032138
21:00−13s39818 0.0 1002210